Vorticity
13 14 14 14 14 14 15 15 15 14 14 14 13 13 14 14 14 14 13 13 14 13 13 14 13 13 12 12 11 11 11 11 12 13 16 19 21 22 21 19 17 16 15 14 11 9 8 8 9 10 11 11 13 16 19 21 21 18 13 7 6 8 10 11 12 12 10 9 9
13 12 12 11 12 13 13 14 13 13 13 13 13 13 14 16 15 14 13 14 14 14 14 14 14 13 12 11 10 10 10 11 14 17 20 22 22 21 18 15 15 16 17 16 13 11 9 9 9 10 10 10 10 11 13 16 18 18 16 11 11 13 16 15 14 12 11 10 9
10 10 10 10 10 11 12 12 11 11 10 10 11 11 12 12 12 11 10 10 11 13 14 15 14 13 12 11 10 10 11 14 18 21 22 22 18 14 11 11 13 15 17 17 15 13 11 10 10 10 10 11 10 10 10 12 16 17 16 11 9 10 11 12 12 11 11 10 8
6 6 6 7 7 8 8 8 9 9 10 10 10 11 11 11 10 10 9 8 8 9 11 13 14 13 12 12 12 13 15 19 22 22 20 14 8 5 6 9 12 14 15 17 16 14 13 12 11 11 12 11 11 11 11 12 14 15 14 9 5 2 2 4 5 6 8 8 9
5 5 5 5 5 5 6 7 8 8 8 9 10 11 12 13 13 13 12 11 9 8 9 10 11 12 12 12 14 17 20 23 22 18 12 3 -1 0 5 11 13 13 13 17 17 15 13 12 12 12 12 12 12 12 12 13 13 12 11 8 5 2 1 2 3 3 3 2 7
5 6 6 6 6 6 6 6 7 6 6 7 8 9 10 12 13 14 15 14 12 11 10 10 10 11 12 12 15 18 21 23 18 11 1 -7 -6 1 8 11 12 12 12 15 17 16 14 12 11 11 11 11 11 12 12 12 11 10 8 5 4 4 4 5 5 4 4 3 5
8 10 10 10 10 9 9 9 9 9 9 9 9 9 9 10 11 13 13 14 14 15 14 13 13 13 14 15 18 21 23 21 13 3 -5 -8 -2 4 8 9 9 10 11 13 15 15 14 13 12 11 10 10 9 9 10 9 9 8 7 6 6 6 6 6 7 7 6 6 7
13 14 16 18 19 20 21 22 22 22 21 20 19 17 16 16 16 16 16 16 15 14 14 13 12 13 14 15 21 24 24 19 9 0 -4 -3 2 4 5 6 7 8 10 12 14 15 15 15 13 12 12 10 10 9 9 8 8 7 8 8 8 7 7 7 7 7 8 8 9
9 13 19 25 28 29 30 31 31 31 31 30 29 28 27 26 25 25 24 23 19 16 13 11 10 11 14 17 23 25 23 16 7 1 -2 -3 -3 -2 0 5 7 8 9 12 16 17 18 17 15 14 13 12 12 11 10 9 9 9 9 9 9 8 7 7 7 8 8 9 10
4 7 12 18 21 21 21 21 23 24 26 26 26 26 26 25 24 23 23 21 19 18 17 15 15 16 19 21 24 23 20 14 6 1 -3 -6 -10 -9 -6 1 7 11 15 20 22 22 20 19 16 14 13 12 11 11 11 10 10 11 11 11 10 10 10 9 9 9 10 10 10
3 0 1 2 1 3 5 9 11 11 12 12 11 12 13 13 13 14 14 15 17 18 18 19 19 20 21 22 23 21 17 11 5 2 -1 -4 -9 -10 -6 4 12 17 21 24 24 25 24 20 15 11 9 8 8 9 9 10 11 13 15 16 16 15 15 14 14 14 14 13 13
6 2 -1 -3 -6 -4 1 7 6 4 2 1 1 2 3 4 4 4 6 9 12 14 16 17 17 18 19 20 20 18 15 11 9 8 5 -0 -5 -3 4 14 17 17 17 17 20 22 21 17 10 5 2 1 3 6 10 13 14 16 18 20 19 18 17 16 16 16 17 17 16
12 9 6 2 -2 -3 -0 7 10 10 7 6 5 5 6 6 5 3 3 4 7 11 14 16 16 16 17 18 19 18 16 15 15 13 8 2 2 7 12 14 12 11 11 12 15 16 16 13 8 3 -2 -6 -3 4 12 18 19 18 18 17 13 10 8 8 10 12 13 14 14
17 16 14 11 5 2 2 5 10 12 12 10 9 9 9 9 8 6 5 4 6 9 12 15 17 17 17 18 19 18 17 16 15 13 11 10 12 13 11 7 5 5 5 6 9 12 14 15 13 11 7 1 0 5 12 19 19 16 12 7 3 2 4 6 5 5 6 6 7
20 20 19 17 12 9 7 8 9 9 8 6 5 6 6 7 6 6 6 5 5 5 7 10 14 15 15 15 15 15 16 17 16 16 16 17 14 10 5 2 2 2 4 7 10 13 15 16 16 16 15 11 8 8 10 14 13 10 5 0 -0 4 9 12 10 8 6 5 5
23 23 21 20 17 14 11 9 7 5 2 0 0 2 4 4 4 5 6 6 4 3 2 4 6 9 10 10 10 12 14 15 15 15 15 14 11 7 3 1 1 2 5 8 11 13 14 14 13 13 12 11 8 6 5 5 5 3 1 -2 2 6 10 11 10 10 11 11 11
24 25 25 24 21 16 11 7 4 3 2 2 3 4 5 4 5 6 7 6 4 3 3 3 4 6 7 6 9 11 11 9 9 10 11 12 9 7 4 3 2 3 4 5 8 10 12 12 11 9 8 6 4 2 2 3 5 4 4 4 7 8 7 5 4 5 7 10 12
20 23 26 28 27 23 17 12 9 9 9 10 10 9 8 8 8 9 8 7 6 6 5 3 4 6 7 6 8 9 8 4 4 6 8 9 8 7 7 7 8 9 9 8 9 10 11 11 11 9 6 4 2 3 6 12 14 15 15 15 14 11 7 4 3 2 2 5 7
12 15 19 24 27 28 28 25 22 20 18 16 15 14 14 15 15 14 13 12 11 9 7 4 5 8 11 12 11 11 9 5 4 5 7 7 7 7 8 10 12 14 15 14 13 11 11 11 10 9 7 5 4 6 12 19 21 21 20 19 17 13 10 7 5 3 1 1 3
8 9 10 13 16 20 24 26 26 25 23 21 20 19 19 20 21 22 22 22 20 17 14 11 11 12 14 16 16 15 14 12 12 12 11 10 10 10 10 11 11 13 14 15 14 13 12 11 11 10 10 9 10 14 18 22 22 22 21 21 19 17 15 13 10 7 4 2 3
10 9 9 8 9 10 13 16 19 20 20 18 16 15 14 15 17 20 23 26 27 26 25 23 22 21 20 19 18 17 17 17 19 19 18 18 18 18 17 16 14 14 14 15 15 15 15 15 15 15 16 17 20 21 22 22 21 21 21 22 22 22 22 21 20 17 15 12 11
12 11 11 10 9 9 8 9 10 11 11 9 7 7 7 7 9 11 14 19 24 28 30 32 31 30 28 26 22 20 19 20 23 25 26 28 28 28 27 26 24 23 23 23 24 24 24 23 23 24 24 24 25 24 23 21 21 20 20 20 21 21 22 23 23 23 23 23 22
12 12 12 12 11 11 10 9 8 7 6 5 4 4 5 6 7 8 9 10 14 17 21 23 25 26 26 26 25 22 20 19 20 23 26 28 29 31 33 34 33 33 33 33 33 32 30 28 25 23 22 20 19 17 16 15 15 14 14 14 15 16 17 18 18 18 19 19 20
12 12 12 12 12 12 12 11 10 9 9 8 8 9 9 10 10 10 10 9 9 10 10 11 11 12 13 15 16 17 18 16 14 12 12 13 14 15 17 20 20 20 20 20 21 22 22 21 17 14 10 7 6 5 5 5 5 5 5 5 6 7 8 9 9 10 10 10 10
12 12 12 12 12 12 12 12 12 12 12 12 13 13 12 12 12 11 11 10 10 10 10 10 9 9 9 9 9 10 11 11 10 8 6 4 3 3 4 5 5 5 4 5 6 7 8 9 9 9 8 8 7 6 6 6 6 6 5 5 5 6 6 6 6 6 6 6 5
11 11 11 11 11 11 11 11 12 12 12 12 12 12 12 12 11 11 11 11 11 11 11 11 11 11 11 11 11 10 10 9 9 8 8 7 6 6 6 6 5 5 5 5 5 6 6 7 7 8 9 9 9 9 9 9 9 9 9 9 9 9 9 9 9 10 9 9 8
10 10 10 10 10 10 10 10 10 11 11 11 11 11 11 11 11 12 12 12 12 12 12 12 12 12 13 13 13 13 12 12 11 11 11 11 11 11 11 11 11 11 10 10 11 11 11 11 11 11 10 10 10 10 9 9 9 9 9 8 8 8 8 9 10 11 11 10 10
9 9 9 9 9 9 9 9 10 10 10 10 10 11 11 11 11 11 11 11 11 12 12 12 12 12 13 13 13 13 13 13 13 13 13 13 13 13 13 13 13 13 13 13 13 13 13 13 13 13 13 13 13 13 12 12 11 10 10 10 10 10 11 12 13 14 14 14 13
9 9 9 9 9 9 9 9 9 9 10 10 10 10 10 10 10 10 10 10 10 10 10 10 10 10 11 11 11 11 11 12 12 12 12 12 12 12 12 12 12 12 12 12 12 12 13 13 13 13 13 13 13 13 14 14 13 13 13 12 12 13 13 14 15 16 18 19 20
9 9 9 9 9 9 9 9 9 9 9 9 9 9 9 9 9 9 9 9 9 9 9 9 9 9 9 9 9 9 9 10 9 9 9 10 10 10 10 10 11 11 11 11 11 11 11 11 11 11 11 11 11 11 12 12 13 13 13 13 13 13 13 13 13 14 15 17 19
9 9 9 9 9 9 9 9 9 9 9 9 9 9 9 9 9 9 9 9 9 9 8 8 8 8 8 8 8 8 8 8 8 9 9 9 9 9 9 9 10 10 10 11 11 11 11 11 11 11 11 11 11 12 12 12 12 12 13 13 13 12 12 12 12 13 13 14 16
10 10 10 10 9 9 9 9 9 9 9 9 9 9 9 9 9 9 9 9 9 8 8 8 8 8 8 8 8 8 8 8 8 8 8 8 8 9 9 9 9 10 10 10 10 11 11 11 12 12 12 13 13 13 13 14 14 14 14 14 14 14 14 13 13 13 13 13 14
10 10 10 10 10 10 10 9 9 9 9 9 9 9 9 9 9 9 9 9 9 9 9 9 9 8 8 8 8 8 8 8 8 9 9 9 9 9 9 9 9 9 9 9 9 9 10 10 10 11 11 12 12 13 13 14 14 15 15 16 16 16 16 16 15 15 14 13 13
11 11 11 10 10 10 10 10 9 9 9 9 9 9 9 9 9 9 9 9 9 9 9 9 9 9 9 9 9 9 9 9 9 9 9 10 10 9 9 9 9 9 8 8 8 8 8 8 8 8 8 9 9 10 10 11 12 12 13 13 14 14 15 16 16 16 15 15 14
11 11 11 10 10 10 10 10 9 9 9 9 9 9 9 9 9 9 9 9 9 9 9 9 9 9 9 9 9 9 9 9 9 10 10 9 9 9 9 9 9 9 9 10 10 10 10 9 8 7 7 7 8 8 8 9 9 9 10 10 10 11 11 12 12 13 14 14 15
11 11 11 10 10 10 9 9 9 9 9 9 9 9 9 8 8 8 8 8 8 8 8 8 8 8 8 9 9 9 9 9 9 9 10 10 10 10 10 10 10 11 11 12 13 13 13 13 13 12 11 11 11 11 11 10 10 10 10 10 11 11 10 10 10 11 11 11 12
11 11 10 10 9 9 9 9 9 8 8 8 8 8 8 8 8 8 8 8 8 8 8 8 8 8 9 9 9 10 10 11 11 11 11 11 12 12 13 12 13 13 14 15 15 16 16 17 17 17 17 17 17 16 16 16 16 15 15 15 15 14 14 13 13 12 12 12 12
10 10 10 9 9 9 8 8 8 8 8 8 8 8 8 8 8 8 8 8 8 9 9 9 9 10 10 11 11 12 12 13 14 14 14 14 15 15 15 15 15 15 16 16 16 17 17 17 17 18 18 19 19 19 20 20 20 20 20 19 19 19 19 18 18 17 16 15 15
10 9 9 9 8 8 8 8 8 7 7 8 8 8 8 8 8 9 9 9 10 10 10 11 11 12 12 13 13 13 14 14 15 15 15 14 15 15 15 14 14 14 14 15 14 14 14 14 14 15 15 16 16 16 17 17 18 18 19 19 19 18 18 19 19 20 19 19 18
9 9 9 8 8 8 8 8 7 7 8 8 8 8 9 9 9 10 10 11 11 12 12 13 13 13 14 14 14 13 13 13 13 13 13 13 12 12 12 12 11 10 11 11 11 11 10 10 11 11 11 12 12 12 12 13 13 13 14 14 14 14 14 14 16 16 17 17 18
9 9 8 8 8 8 8 8 8 8 8 9 9 9 9 10 10 11 11 12 12 13 13 13 13 13 13 14 13 12 11 11 11 11 11 10 10 10 9 9 8 8 8 9 9 9 9 9 9 9 9 9 9 10 10 10 10 10 10 10 10 11 11 11 12 12 13 14 15
Height
3015 3015 3016 3016 3016 3017 3017 3017 3018 3018 3018 3018 3019 3019 3019 3020 3020 3020 3020 3021 3021 3021 3022 3022 3022 3022 3022 3023 3023 3023 3023 3024 3024 3025 3025 3026 3026 3027 3028 3029 3030 3031 3032 3033 3034 3035 3037 3037 3038 3038 3039 3039 3040 3041 3042 3043 3044 3045 3046 3046 3047 3048 3049 3049 3050 3050 3051 3051 3052
3014 3014 3015 3015 3015 3016 3016 3016 3017 3017 3017 3017 3017 3017 3017 3018 3018 3018 3019 3019 3019 3020 3020 3020 3020 3021 3021 3021 3021 3021 3021 3022 3022 3022 3023 3023 3024 3025 3026 3027 3027 3029 3030 3031 3032 3033 3034 3035 3035 3036 3036 3037 3037 3038 3039 3040 3042 3042 3042 3043 3045 3046 3046 3046 3047 3047 3048 3049 3049
3013 3013 3014 3014 3014 3015 3015 3015 3015 3016 3016 3016 3016 3016 3016 3016 3017 3017 3017 3017 3017 3018 3018 3018 3018 3019 3019 3019 3019 3019 3020 3020 3020 3021 3021 3022 3022 3023 3024 3024 3025 3026 3028 3029 3029 3030 3031 3031 3032 3033 3033 3033 3034 3034 3035 3036 3037 3038 3039 3041 3042 3044 3045 3045 3044 3045 3045 3046 3046
3012 3013 3013 3013 3013 3013 3014 3014 3014 3014 3014 3015 3015 3015 3015 3015 3015 3015 3016 3016 3016 3016 3017 3017 3017 3017 3017 3017 3017 3018 3018 3018 3019 3019 3020 3021 3022 3022 3022 3022 3022 3023 3024 3026 3027 3027 3028 3028 3029 3030 3030 3031 3032 3032 3033 3034 3035 3036 3037 3037 3039 3040 3040 3041 3042 3042 3043 3043 3043
3012 3012 3012 3012 3012 3012 3013 3013 3013 3013 3013 3013 3013 3013 3013 3013 3014 3014 3014 3014 3015 3015 3015 3015 3015 3015 3015 3015 3016 3016 3016 3017 3017 3018 3019 3020 3020 3020 3020 3020 3021 3021 3022 3023 3024 3025 3025 3026 3026 3027 3027 3028 3029 3030 3031 3032 3033 3033 3034 3034 3035 3035 3035 3036 3037 3038 3039 3040 3040
3011 3012 3012 3012 3012 3012 3012 3012 3012 3012 3012 3012 3012 3012 3012 3012 3012 3012 3012 3012 3013 3013 3013 3013 3013 3013 3013 3013 3014 3014 3014 3015 3016 3017 3017 3018 3018 3018 3018 3019 3019 3020 3020 3021 3022 3022 3023 3023 3024 3025 3025 3026 3027 3028 3029 3030 3030 3031 3031 3032 3032 3032 3033 3033 3034 3034 3034 3035 3035
3011 3011 3011 3011 3011 3011 3011 3011 3011 3011 3010 3010 3010 3010 3010 3010 3011 3011 3011 3011 3011 3011 3012 3012 3012 3012 3012 3011 3012 3012 3012 3013 3014 3015 3015 3016 3016 3016 3017 3017 3018 3018 3019 3019 3020 3021 3021 3022 3022 3022 3023 3024 3025 3025 3026 3027 3028 3028 3028 3028 3029 3030 3030 3031 3031 3031 3032 3032 3032
3010 3010 3010 3010 3010 3010 3010 3010 3010 3009 3009 3009 3009 3009 3009 3009 3009 3009 3009 3009 3009 3009 3009 3010 3010 3010 3010 3010 3010 3011 3012 3012 3013 3013 3013 3014 3015 3015 3016 3016 3017 3017 3017 3017 3018 3019 3019 3019 3020 3021 3021 3022 3022 3023 3024 3025 3025 3025 3025 3025 3026 3027 3027 3027 3028 3028 3028 3029 3029
3010 3010 3010 3009 3009 3009 3009 3009 3008 3008 3008 3008 3008 3008 3008 3008 3008 3008 3008 3008 3008 3008 3008 3008 3008 3008 3008 3009 3009 3010 3011 3012 3012 3012 3012 3013 3014 3014 3015 3015 3015 3016 3016 3016 3017 3017 3017 3017 3018 3018 3019 3020 3020 3021 3022 3022 3022 3022 3022 3022 3023 3024 3024 3025 3025 3025 3026 3026 3026
3009 3009 3009 3009 3009 3009 3008 3008 3008 3007 3007 3007 3007 3007 3007 3007 3007 3007 3007 3007 3007 3007 3007 3007 3007 3007 3008 3008 3009 3009 3010 3010 3011 3011 3011 3012 3012 3012 3013 3013 3013 3014 3014 3015 3015 3015 3015 3016 3016 3016 3017 3017 3018 3019 3019 3020 3020 3019 3019 3020 3020 3021 3022 3022 3022 3023 3023 3023 3023
3009 3009 3008 3008 3008 3008 3008 3007 3007 3007 3007 3006 3006 3006 3006 3006 3005 3005 3005 3005 3006 3006 3006 3006 3006 3007 3007 3007 3008 3008 3009 3009 3009 3009 3009 3009 3010 3010 3011 3011 3011 3012 3012 3013 3013 3013 3013 3013 3014 3014 3015 3016 3016 3017 3017 3017 3017 3017 3017 3017 3017 3018 3019 3019 3020 3020 3020 3020 3020
3008 3008 3008 3007 3007 3007 3007 3007 3006 3006 3006 3005 3005 3005 3005 3004 3004 3004 3004 3005 3005 3005 3005 3005 3006 3006 3006 3007 3007 3007 3008 3008 3008 3008 3008 3008 3008 3009 3009 3009 3009 3009 3010 3010 3010 3010 3010 3010 3011 3012 3012 3013 3014 3015 3015 3015 3014 3014 3014 3014 3015 3016 3016 3017 3017 3017 3017 3017 3017
3007 3007 3007 3007 3006 3006 3006 3006 3006 3005 3005 3005 3004 3004 3004 3004 3003 3003 3003 3004 3004 3004 3004 3005 3005 3005 3006 3006 3006 3006 3007 3007 3007 3007 3007 3007 3008 3008 3008 3008 3008 3008 3008 3008 3008 3008 3008 3009 3009 3010 3010 3011 3012 3012 3013 3012 3012 3012 3012 3013 3013 3014 3014 3014 3014 3014 3014 3014 3014
3007 3007 3007 3006 3006 3005 3005 3005 3005 3005 3005 3005 3004 3004 3004 3003 3003 3003 3003 3003 3003 3003 3004 3004 3005 3005 3005 3006 3006 3006 3006 3006 3006 3007 3007 3007 3007 3007 3007 3007 3007 3007 3007 3007 3007 3007 3007 3007 3008 3008 3009 3009 3009 3010 3010 3010 3011 3011 3011 3011 3012 3012 3012 3012 3012 3012 3012 3012 3011
3007 3007 3007 3007 3006 3006 3005 3005 3004 3005 3005 3005 3005 3004 3004 3004 3003 3003 3003 3003 3003 3003 3004 3004 3004 3005 3005 3005 3006 3006 3006 3006 3006 3006 3006 3006 3006 3005 3005 3005 3005 3006 3006 3006 3005 3006 3006 3006 3006 3007 3007 3007 3007 3007 3008 3008 3009 3009 3009 3009 3009 3009 3009 3008 3009 3009 3009 3009 3009
3008 3008 3007 3007 3007 3006 3006 3005 3005 3004 3004 3004 3004 3004 3004 3004 3003 3003 3003 3003 3003 3003 3003 3003 3003 3004 3004 3004 3005 3005 3005 3005 3005 3005 3005 3004 3004 3004 3004 3004 3003 3003 3003 3004 3004 3004 3004 3004 3005 3005 3005 3006 3006 3006 3007 3007 3007 3007 3007 3007 3007 3006 3006 3006 3006 3006 3006 3006 3006
3008 3008 3008 3007 3007 3007 3006 3005 3005 3004 3004 3004 3004 3004 3004 3003 3003 3003 3002 3002 3002 3002 3002 3002 3002 3002 3002 3003 3003 3003 3003 3003 3003 3003 3003 3003 3003 3002 3002 3002 3002 3002 3002 3002 3002 3002 3002 3002 3003 3003 3003 3004 3004 3004 3004 3004 3004 3004 3004 3004 3004 3004 3003 3003 3004 3003 3003 3003 3003
3008 3008 3008 3007 3007 3007 3006 3005 3005 3004 3004 3003 3003 3003 3003 3003 3002 3002 3002 3002 3002 3002 3002 3001 3001 3001 3001 3001 3001 3001 3001 3001 3001 3001 3001 3001 3001 3001 3001 3001 3000 3000 3000 3000 3000 3000 3000 3000 3001 3001 3001 3002 3002 3002 3002 3001 3001 3001 3001 3001 3001 3001 3001 3001 3001 3001 3001 3001 3001
3008 3008 3007 3007 3007 3006 3006 3005 3005 3004 3004 3003 3003 3003 3002 3002 3002 3002 3002 3001 3001 3001 3001 3001 3001 3001 3001 3000 3000 3000 3000 3000 3000 2999 2999 2999 2999 2998 2998 2998 2998 2998 2998 2998 2998 2999 2999 2999 2999 2999 2999 2999 3000 3000 2999 2999 2998 2998 2998 2997 2997 2997 2997 2997 2997 2998 2998 2998 2998
3008 3008 3007 3007 3007 3006 3005 3005 3004 3004 3003 3003 3003 3003 3002 3002 3002 3001 3001 3001 3001 3000 3000 3000 3000 3000 3000 3000 2999 2999 2999 2998 2998 2998 2997 2997 2997 2997 2997 2997 2997 2997 2997 2997 2997 2997 2997 2997 2997 2997 2997 2998 2998 2997 2997 2997 2997 2996 2996 2995 2995 2995 2994 2994 2994 2994 2995 2995 2995
3008 3008 3007 3007 3006 3006 3005 3004 3004 3003 3003 3003 3002 3002 3002 3002 3001 3001 3001 3000 3000 3000 2999 2999 2999 2999 2999 2999 2998 2998 2998 2997 2997 2997 2996 2996 2996 2996 2995 2995 2995 2995 2995 2995 2995 2995 2995 2996 2996 2996 2996 2996 2996 2995 2995 2995 2995 2994 2994 2993 2993 2992 2992 2992 2992 2992 2992 2992 2992
3008 3007 3007 3007 3006 3005 3005 3004 3004 3003 3003 3002 3002 3002 3002 3001 3001 3001 3000 3000 3000 2999 2999 2998 2998 2998 2997 2997 2997 2997 2997 2996 2996 2996 2996 2995 2995 2995 2995 2994 2994 2993 2993 2993 2993 2993 2993 2993 2993 2993 2993 2993 2993 2993 2993 2993 2992 2992 2992 2991 2991 2990 2990 2989 2989 2989 2988 2988 2988
3008 3007 3007 3006 3006 3005 3004 3004 3003 3003 3002 3002 3002 3002 3002 3001 3001 3001 3000 3000 3000 2999 2999 2998 2997 2997 2997 2996 2996 2996 2996 2995 2995 2995 2995 2994 2994 2994 2993 2993 2992 2992 2992 2992 2992 2992 2992 2991 2991 2991 2991 2990 2990 2990 2990 2989 2989 2989 2988 2988 2988 2987 2987 2986 2986 2986 2985 2985 2985
3007 3007 3006 3006 3005 3005 3004 3004 3003 3003 3002 3002 3002 3002 3002 3001 3001 3000 3000 3000 2999 2999 2998 2998 2997 2997 2996 2996 2996 2995 2995 2994 2994 2994 2993 2993 2993 2992 2992 2992 2991 2991 2990 2990 2990 2990 2989 2989 2989 2988 2988 2988 2987 2987 2987 2987 2986 2986 2985 2985 2984 2984 2984 2983 2983 2982 2982 2982 2982
3007 3007 3006 3006 3005 3005 3004 3004 3003 3003 3002 3002 3002 3002 3001 3001 3000 2999 2999 2998 2998 2997 2997 2997 2997 2996 2996 2995 2995 2995 2994 2994 2993 2993 2992 2992 2992 2992 2991 2990 2990 2989 2989 2989 2989 2989 2989 2988 2988 2987 2987 2987 2987 2986 2986 2985 2984 2984 2983 2982 2982 2982 2981 2980 2980 2979 2979 2978 2978
3007 3007 3006 3005 3005 3004 3004 3003 3003 3002 3002 3002 3001 3001 3000 3000 2999 2998 2998 2997 2997 2997 2996 2996 2996 2995 2995 2995 2994 2994 2993 2993 2992 2992 2992 2991 2991 2991 2991 2990 2990 2989 2989 2989 2989 2988 2988 2987 2987 2987 2987 2986 2986 2985 2984 2983 2983 2982 2981 2981 2980 2980 2979 2978 2978 2977 2976 2976 2975
3007 3006 3006 3005 3005 3004 3004 3003 3003 3002 3002 3001 3001 3000 2999 2999 2998 2998 2997 2997 2996 2996 2996 2995 2995 2995 2994 2994 2993 2993 2992 2992 2992 2991 2991 2990 2990 2990 2989 2989 2988 2988 2987 2987 2987 2986 2986 2986 2985 2985 2984 2984 2983 2982 2982 2981 2980 2979 2978 2978 2977 2977 2976 2976 2975 2975 2974 2974 2973
3007 3006 3006 3005 3004 3004 3003 3003 3002 3002 3001 3001 3000 3000 2999 2998 2998 2997 2997 2996 2996 2995 2995 2995 2994 2994 2993 2993 2993 2992 2992 2991 2991 2990 2990 2989 2989 2988 2988 2987 2987 2986 2986 2985 2985 2984 2984 2983 2983 2982 2982 2981 2981 2980 2979 2978 2978 2977 2976 2975 2974 2973 2972 2972 2972 2971 2971 2971 2970
3007 3006 3006 3005 3004 3004 3003 3003 3002 3002 3001 3001 3000 2999 2999 2998 2997 2997 2997 2996 2995 2995 2994 2994 2993 2993 2992 2992 2992 2991 2991 2990 2990 2989 2989 2988 2987 2987 2987 2986 2985 2985 2984 2984 2983 2982 2982 2981 2980 2980 2979 2979 2978 2977 2977 2976 2975 2975 2974 2973 2972 2971 2970 2969 2968 2967 2967 2967 2966
3007 3006 3006 3005 3004 3004 3003 3003 3002 3002 3001 3000 3000 2999 2998 2998 2997 2997 2996 2996 2995 2994 2994 2993 2992 2992 2992 2991 2990 2990 2989 2989 2988 2988 2987 2987 2986 2985 2985 2984 2984 2983 2983 2982 2982 2981 2980 2979 2978 2977 2977 2976 2975 2975 2974 2973 2972 2972 2971 2970 2969 2968 2967 2966 2965 2964 2963 2963 2962
3007 3007 3006 3005 3005 3004 3003 3003 3002 3002 3001 3000 3000 2999 2998 2998 2997 2997 2996 2995 2995 2994 2993 2992 2992 2991 2991 2990 2989 2989 2988 2988 2987 2986 2986 2985 2985 2984 2983 2982 2982 2982 2981 2981 2980 2979 2978 2977 2977 2976 2975 2974 2973 2972 2972 2971 2970 2969 2968 2967 2967 2966 2964 2963 2962 2962 2961 2960 2959
3008 3007 3006 3006 3005 3004 3004 3003 3002 3002 3001 3000 3000 2999 2998 2998 2997 2997 2996 2995 2995 2994 2993 2992 2992 2991 2991 2990 2989 2988 2988 2987 2987 2986 2985 2984 2984 2983 2982 2982 2981 2980 2980 2979 2979 2978 2977 2976 2975 2974 2973 2972 2972 2971 2970 2969 2968 2967 2966 2965 2964 2963 2962 2961 2960 2959 2958 2957 2956
3008 3007 3007 3006 3005 3004 3004 3003 3002 3002 3001 3000 3000 2999 2998 2998 2997 2997 2996 2995 2995 2994 2993 2992 2992 2991 2991 2990 2989 2988 2987 2987 2986 2985 2984 2984 2983 2982 2981 2980 2979 2979 2978 2978 2977 2977 2976 2975 2974 2973 2972 2971 2970 2969 2968 2967 2966 2965 2964 2963 2962 2961 2959 2958 2957 2956 2955 2954 2953
3008 3007 3007 3006 3005 3005 3004 3003 3002 3002 3001 3000 3000 2999 2998 2998 2997 2997 2996 2995 2994 2994 2993 2992 2992 2991 2990 2989 2988 2987 2987 2986 2985 2984 2983 2983 2982 2981 2980 2979 2978 2977 2977 2976 2976 2975 2974 2973 2972 2971 2970 2969 2968 2967 2966 2965 2964 2963 2962 2961 2960 2958 2957 2956 2955 2953 2952 2951 2950
3008 3007 3007 3006 3005 3005 3004 3003 3002 3002 3001 3000 3000 2999 2998 2997 2997 2996 2995 2994 2994 2993 2992 2991 2990 2990 2989 2988 2987 2987 2986 2985 2984 2983 2982 2981 2981 2980 2979 2977 2977 2976 2975 2974 2973 2972 2972 2971 2970 2969 2968 2967 2966 2965 2964 2963 2962 2961 2960 2958 2957 2956 2955 2953 2952 2951 2950 2949 2947
3008 3007 3007 3006 3005 3004 3004 3003 3002 3001 3001 3000 2999 2998 2998 2997 2996 2995 2994 2993 2993 2992 2991 2990 2989 2988 2988 2987 2986 2985 2985 2984 2983 2982 2981 2980 2979 2978 2977 2976 2975 2974 2973 2972 2971 2970 2969 2969 2968 2967 2966 2965 2963 2962 2961 2960 2959 2958 2957 2956 2954 2953 2952 2950 2949 2948 2947 2945 2944
3008 3007 3007 3006 3005 3004 3003 3002 3002 3001 3000 2999 2998 2998 2997 2996 2995 2994 2994 2993 2992 2991 2990 2989 2989 2988 2987 2986 2985 2984 2984 2983 2982 2981 2980 2979 2978 2977 2976 2975 2974 2973 2972 2971 2970 2969 2968 2967 2967 2966 2964 2963 2962 2961 2960 2958 2957 2956 2955 2953 2952 2950 2949 2947 2946 2944 2943 2942 2940
3007 3007 3006 3005 3004 3004 3003 3002 3001 3000 2999 2999 2998 2997 2997 2996 2995 2994 2993 2993 2992 2991 2990 2989 2988 2987 2987 2986 2985 2984 2983 2982 2981 2980 2979 2978 2977 2977 2976 2975 2973 2972 2971 2971 2970 2968 2967 2967 2965 2964 2963 2962 2961 2960 2959 2958 2957 2955 2954 2952 2951 2949 2947 2946 2944 2943 2941 2940 2938
3007 3006 3006 3005 3004 3003 3002 3002 3001 3000 2999 2998 2997 2997 2996 2996 2995 2994 2993 2993 2992 2991 2990 2989 2988 2987 2986 2985 2984 2983 2982 2981 2980 2979 2978 2977 2976 2975 2974 2973 2972 2971 2970 2969 2968 2967 2966 2965 2964 2963 2962 2961 2960 2959 2958 2957 2956 2954 2953 2952 2950 2949 2947 2946 2944 2942 2941 2939 2937
3007 3006 3005 3004 3003 3003 3002 3001 3000 3000 2999 2998 2997 2997 2996 2995 2995 2994 2993 2992 2992 2991 2990 2989 2988 2987 2986 2985 2983 2982 2981 2980 2978 2977 2977 2975 2974 2973 2972 2971 2970 2969 2968 2967 2966 2965 2964 2963 2962 2961 2960 2959 2958 2957 2956 2955 2954 2953 2952 2951 2949 2948 2947 2945 2944 2942 2941 2939 2937
3006 3005 3004 3004 3003 3002 3002 3001 3000 2999 2999 2998 2997 2997 2996 2995 2995 2994 2993 2992 2991 2990 2989 2988 2987 2986 2984 2983 2982 2981 2979 2978 2977 2975 2974 2973 2972 2971 2970 2969 2968 2967 2966 2965 2964 2963 2962 2961 2960 2959 2958 2957 2957 2956 2955 2954 2953 2952 2951 2949 2948 2947 2946 2944 2943 2941 2940 2938 2936